• In Portugal
  • List of Countries
  • For 7 days
  • Water Temperature
  • Satellite Maps
  • Weather Map
  • Weather Widgets
  • user-avatar
    Login

    Hourly Weather Yangon

    Today, 16 December, Saturday

    Time Temperature Precipitation Wind Pressure Humidity
    00:00 +22°C° 0 mm 4 mps 759 mmHg 73%
    01:00 +21°C° 0 mm 4 mps 759 mmHg 73%
    02:00 +21°C° 0 mm 4 mps 759 mmHg 73%
    03:00 +20°C° 0 mm 3 mps 758 mmHg 73%
    04:00 +20°C° 0 mm 3 mps 759 mmHg 73%
    05:00 +20°C° 0 mm 3 mps 759 mmHg 73%
    06:00 +20°C° 0 mm 3 mps 759 mmHg 73%
    07:00 +22°C° 0 mm 3 mps 759 mmHg 67%
    08:00 +25°C° 0 mm 4 mps 760 mmHg 61%
    09:00 +27°C° 0 mm 4 mps 760 mmHg 55%
    10:00 +29°C° 0 mm 4 mps 760 mmHg 50%
    11:00 +31°C° 0 mm 3 mps 760 mmHg 46%
    12:00 +34°C° 0 mm 3 mps 759 mmHg 42%
    13:00 +34°C° 0 mm 3 mps 759 mmHg 43%
    14:00 +34°C° 0 mm 3 mps 758 mmHg 43%
    15:00 +34°C° 0 mm 3 mps 758 mmHg 44%
    16:00 +32°C° 0 mm 2 mps 758 mmHg 50%
    17:00 +30°C° 0 mm 2 mps 758 mmHg 56%
    18:00 +28°C° 0 mm 1 mps 758 mmHg 62%
    19:00 +28°C° 0 mm 2 mps 759 mmHg 63%
    20:00 +27°C° 0 mm 2 mps 759 mmHg 65%
    21:00 +27°C° 0 mm 2 mps 760 mmHg 67%
    22:00 +26°C° 0 mm 2 mps 760 mmHg 68%
    23:00 +26°C° 0 mm 3 mps 760 mmHg 69%

    Tomorrow, 17 December, Sunday

    Time Temperature Precipitation Wind Pressure Humidity
    00:00 +25°C° 0 mm 3 mps 760 mmHg 70%
    01:00 +25°C° 0.1 mm 3 mps 760 mmHg 71%
    02:00 +25°C° 0.1 mm 3 mps 760 mmHg 72%
    03:00 +25°C° 0.1 mm 3 mps 760 mmHg 73%
    04:00 +25°C° 0.1 mm 3 mps 760 mmHg 73%
    05:00 +25°C° 0.1 mm 3 mps 760 mmHg 74%
    06:00 +23°C° 0.1 mm 4 mps 760 mmHg 74%
    07:00 +26°C° 0 mm 4 mps 761 mmHg 69%
    08:00 +28°C° 0 mm 4 mps 762 mmHg 65%
    09:00 +30°C° 0 mm 4 mps 762 mmHg 60%
    10:00 +32°C° 0 mm 4 mps 762 mmHg 56%
    11:00 +33°C° 0 mm 4 mps 761 mmHg 53%
    12:00 +34°C° 0 mm 4 mps 761 mmHg 49%
    13:00 +34°C° 0 mm 4 mps 760 mmHg 49%
    14:00 +34°C° 0 mm 3 mps 759 mmHg 48%
    15:00 +33°C° 0 mm 3 mps 759 mmHg 48%
    16:00 +31°C° 0 mm 3 mps 759 mmHg 53%
    17:00 +29°C° 0 mm 2 mps 759 mmHg 57%
    18:00 +28°C° 0 mm 2 mps 759 mmHg 62%
    19:00 +27°C° 0 mm 2 mps 760 mmHg 64%
    20:00 +27°C° 0 mm 2 mps 760 mmHg 66%
    21:00 +26°C° 0 mm 2 mps 761 mmHg 68%
    22:00 +26°C° 0 mm 2 mps 761 mmHg 70%
    23:00 +26°C° 0 mm 2 mps 761 mmHg 71%

    Day after tomorrow, 18 December, Monday

    Time Temperature Precipitation Wind Pressure Humidity
    00:00 +25°C° 0 mm 3 mps 761 mmHg 72%
    01:00 +25°C° 0 mm 3 mps 760 mmHg 72%
    02:00 +25°C° 0 mm 3 mps 760 mmHg 72%
    03:00 +25°C° 0 mm 3 mps 759 mmHg 71%
    04:00 +25°C° 0 mm 3 mps 760 mmHg 72%
    05:00 +24°C° 0 mm 3 mps 760 mmHg 73%
    06:00 +24°C° 0 mm 3 mps 760 mmHg 75%
    07:00 +26°C° 0 mm 4 mps 761 mmHg 67%
    08:00 +28°C° 0 mm 4 mps 761 mmHg 60%
    09:00 +30°C° 0 mm 4 mps 762 mmHg 53%
    10:00 +32°C° 0 mm 4 mps 761 mmHg 50%
    11:00 +33°C° 0 mm 4 mps 761 mmHg 47%
    12:00 +34°C° 0 mm 4 mps 760 mmHg 45%
    13:00 +33°C° 0 mm 4 mps 760 mmHg 46%
    14:00 +33°C° 0 mm 4 mps 759 mmHg 47%
    15:00 +33°C° 0 mm 3 mps 758 mmHg 48%
    16:00 +30°C° 0 mm 3 mps 759 mmHg 52%
    17:00 +29°C° 0 mm 2 mps 759 mmHg 56%
    18:00 +27°C° 0 mm 2 mps 759 mmHg 60%
    19:00 +27°C° 0 mm 2 mps 760 mmHg 62%
    20:00 +26°C° 0 mm 1 mps 760 mmHg 64%
    21:00 +26°C° 0 mm 1 mps 761 mmHg 66%
    22:00 +26°C° 0 mm 2 mps 761 mmHg 67%
    23:00 +25°C° 0 mm 2 mps 761 mmHg 68%

    19 December, Tuesday

    Time Temperature Precipitation Wind Pressure Humidity
    00:00 +25°C° 0 mm 3 mps 760 mmHg 69%
    01:00 +25°C° 0 mm 3 mps 760 mmHg 69%
    02:00 +25°C° 0 mm 3 mps 760 mmHg 69%
    03:00 +25°C° 0 mm 3 mps 759 mmHg 69%
    04:00 +25°C° 0 mm 3 mps 760 mmHg 70%
    05:00 +24°C° 0 mm 3 mps 760 mmHg 70%
    06:00 +23°C° 0 mm 4 mps 761 mmHg 71%
    07:00 +26°C° 0 mm 4 mps 761 mmHg 64%
    08:00 +28°C° 0 mm 5 mps 762 mmHg 56%
    09:00 +29°C° 0 mm 5 mps 762 mmHg 49%
    10:00 +30°C° 0 mm 5 mps 762 mmHg 46%
    11:00 +32°C° 0 mm 5 mps 761 mmHg 44%
    12:00 +33°C° 0 mm 5 mps 761 mmHg 42%
    13:00 +33°C° 0 mm 5 mps 760 mmHg 41%
    14:00 +32°C° 0 mm 5 mps 759 mmHg 41%
    15:00 +32°C° 0 mm 4 mps 759 mmHg 40%
    16:00 +30°C° 0 mm 4 mps 759 mmHg 43%
    17:00 +28°C° 0 mm 3 mps 759 mmHg 46%
    18:00 +27°C° 0 mm 3 mps 760 mmHg 50%
    19:00 +26°C° 0 mm 3 mps 760 mmHg 50%
    20:00 +26°C° 0 mm 4 mps 761 mmHg 51%
    21:00 +26°C° 0 mm 4 mps 761 mmHg 52%
    22:00 +25°C° 0 mm 4 mps 761 mmHg 53%
    23:00 +25°C° 0 mm 5 mps 761 mmHg 54%

    20 December, Wednesday

    Time Temperature Precipitation Wind Pressure Humidity
    00:00 +25°C° 0 mm 5 mps 761 mmHg 55%
    01:00 +23°C° 0 mm 5 mps 761 mmHg 55%
    02:00 +23°C° 0 mm 4 mps 761 mmHg 56%
    03:00 +23°C° 0 mm 4 mps 760 mmHg 56%
    04:00 +22°C° 0 mm 4 mps 761 mmHg 57%
    05:00 +22°C° 0 mm 4 mps 761 mmHg 57%
    06:00 +22°C° 0 mm 4 mps 761 mmHg 58%
    07:00 +25°C° 0 mm 5 mps 762 mmHg 54%
    08:00 +26°C° 0 mm 5 mps 763 mmHg 50%
    09:00 +28°C° 0 mm 5 mps 763 mmHg 45%
    10:00 +29°C° 0 mm 5 mps 763 mmHg 42%
    11:00 +30°C° 0 mm 5 mps 762 mmHg 38%
    12:00 +32°C° 0 mm 5 mps 761 mmHg 34%
    13:00 +32°C° 0 mm 5 mps 761 mmHg 34%
    14:00 +32°C° 0 mm 4 mps 760 mmHg 33%
    15:00 +32°C° 0 mm 4 mps 759 mmHg 33%
    16:00 +29°C° 0 mm 3 mps 760 mmHg 36%
    17:00 +27°C° 0 mm 3 mps 760 mmHg 39%
    18:00 +26°C° 0 mm 2 mps 761 mmHg 42%
    19:00 +25°C° 0 mm 3 mps 761 mmHg 43%
    20:00 +25°C° 0 mm 3 mps 761 mmHg 44%
    21:00 +24°C° 0 mm 3 mps 762 mmHg 45%
    22:00 +23°C° 0 mm 4 mps 762 mmHg 47%
    23:00 +23°C° 0 mm 4 mps 762 mmHg 48%

    21 December, Thursday

    Time Temperature Precipitation Wind Pressure Humidity
    00:00 +23°C° 0 mm 5 mps 761 mmHg 50%
    01:00 +22°C° 0 mm 5 mps 761 mmHg 52%
    02:00 +22°C° 0 mm 5 mps 761 mmHg 53%
    03:00 +21°C° 0 mm 5 mps 760 mmHg 55%
    04:00 +21°C° 0 mm 5 mps 761 mmHg 56%
    05:00 +20°C° 0 mm 5 mps 761 mmHg 57%
    06:00 +20°C° 0 mm 5 mps 761 mmHg 58%
    07:00 +22°C° 0 mm 5 mps 762 mmHg 53%
    08:00 +24°C° 0 mm 6 mps 762 mmHg 48%
    09:00 +27°C° 0 mm 6 mps 763 mmHg 43%
    10:00 +28°C° 0 mm 6 mps 762 mmHg 39%
    11:00 +29°C° 0 mm 5 mps 761 mmHg 35%
    12:00 +30°C° 0 mm 5 mps 761 mmHg 31%
    13:00 +30°C° 0 mm 5 mps 760 mmHg 30%
    14:00 +30°C° 0 mm 4 mps 759 mmHg 29%
    15:00 +32°C° 0 mm 4 mps 758 mmHg 28%
    16:00 +29°C° 0 mm 3 mps 759 mmHg 32%
    17:00 +27°C° 0 mm 3 mps 759 mmHg 35%
    18:00 +25°C° 0 mm 3 mps 759 mmHg 38%
    19:00 +25°C° 0 mm 3 mps 760 mmHg 39%
    20:00 +24°C° 0 mm 2 mps 760 mmHg 39%
    21:00 +24°C° 0 mm 2 mps 760 mmHg 40%
    22:00 +22°C° 0 mm 3 mps 760 mmHg 42%
    23:00 +22°C° 0 mm 3 mps 760 mmHg 43%
    Show more